Flag for Canada Weather past 2 weeks in Steinbach, Manitoba, Canada

Now
76 °F

Mild.


Feels Like: 78 °F
Forecast: 62 / 87 °F
Wind: 1 mph from Southwest

Location: Winnipeg The Forks

Current Time: Sep 1, 2015 at 9:59:42 PM

Latest Report: Sep 1, 2015 at 9:00 PM


Visibility: N/A

Pressure: 29.78 "Hg

Humidity: 56%

Dew point: 60 °F

Location of SteinbachLocation

Historic Weather in Steinbach — Graph

°F

Steinbach temperature yesterday

Maximum temperature yesterday: 79 °F (at 6:00 PM)
Minimum temperature yesterday: 68 °F (at 9:00 AM)
Average temperature yesterday: 72 °F

Past Weeks' High & Low Weather Summary

 TemperatureHumidityPressure
High86 °F (Aug 30, 5:00 PM)96% (Aug 30, 7:00 AM)30.20 "Hg (Aug 30, 7:00 AM)
Low49 °F (Aug 26, 7:00 AM)29% (Aug 31, 6:00 PM)29.36 "Hg (Aug 22, 9:00 PM)
Average66 °F68%29.83 "Hg
* Reported Aug 17 8:00 PM — Sep 1 8:00 PM, Steinbach, Weather by CustomWeather, © 2015

Note: Actual official high and low records may vary slightly from our data, if they occured in-between our weather recording intervals... More about our weather records

Advertising

Steinbach weather history for previous 24 hours

 ConditionsComfort  
Time TempWeatherWind HumidityBarometerVisibility
8:00 PM
Tue, Sep 1
80 °FWarm.2 mph53%29.77 "HgN/A
7:00 PM83 °FPleasantly warm.2 mph36%29.77 "HgN/A
6:00 PM86 °FPleasantly warm.1 mph29%29.76 "HgN/A
5:00 PM85 °FPleasantly warm.1 mph32%29.77 "HgN/A
4:00 PM84 °FPleasantly warm.2 mph34%29.78 "HgN/A
3:00 PM83 °FPleasantly warm.2 mph30%29.79 "HgN/A
2:00 PM81 °FPleasantly warm.5 mph33%29.79 "HgN/A
10:00 AM67 °FMild.3 mph56%29.81 "HgN/A
9:00 AM63 °FMild.5 mph59%29.81 "HgN/A
6:00 AM57 °FCool.5 mph68%29.80 "HgN/A
5:00 AM58 °FCool.5 mph67%29.78 "HgN/A
3:00 AM60 °FCool.6 mph61%29.78 "HgN/A
2:00 AM60 °FCool.5 mph62%29.78 "HgN/A
1:00 AM63 °FMild.3 mph56%29.78 "HgN/A
12:00 AM64 °FMild.5 mph55%29.77 "HgN/A
9:00 PM
Mon, Aug 31
71 °FMild.3 mph43%29.74 "HgN/A
Weather by CustomWeather, © 2015

See weather overviewHow to use our weather pages